Location: Unspecified
(54.1780°N, 0.0000°E)
Time: 15:19:28
(UTC+00:00)

Vanguard 2 - Pass Details

Date: 23 June 2019
Orbit: 554 x 2938 km, 32.9° (Epoch: 21 August)

Event Time Altitude Azimuth Distance (km) Brightness Sun altitude
Rises 10:17:35 0° 232° (SW) 3,627 11.0 53.6°
Reaches altitude 10° 10:21:00 10° 210° (SSW) 3,031 10.9 53.9°
Maximum altitude 10:25:23 16° 175° (S) 3,023 11.3 54.3°
Drops below altitude 10° 10:30:59 10° 142° (SE) 4,057 12.0 54.8°
Sets 10:36:50 0° 125° (SE) 5,590 12.4 55.3°
